Regional Weather Roundup
Issued by NWS Newport/Morehead, NC

Home | Current Version | Previous Version | Text Only | Print | Product List | Glossary On
Versions: 1 2 3 4 5 6 7 8 9 10 11 12 13 14 15 16 17 18 19 20 21 22 23 24 25 26 27 28 29 30 31 32 33 34 35 36 37 38 39 40 41 42 43 44 45 46 47 48 49 50
000
ASUS42 KMHX 260625
RWRMHX
WEATHER ROUNDUP FOR EASTERN NORTH CAROLINA
NATIONAL WEATHER SERVICE NEWPORT/MOREHEAD CITY NC
200 AM EDT SUN MAR 26 2017

NOTE: "FAIR" INDICATES FEW OR NO CLOUDS BELOW 12,000 FEET
WITH NO SIGNIFICANT WEATHER AND/OR OBSTRUCTIONS TO VISIBILITY

NCZ015>017-031-032-045>047-102-103-260700-
NORTH COAST

CITY           SKY/WX    TMP DP  RH WIND       PRES   REMARKS
EDENTON        NOT AVBL
ELIZABETH CITY PTCLDY    58  52  80 S5        30.24S
KITTY HAWK     NOT AVBL
MANTEO         PTCLDY    54  52  94 CALM      30.26S

$$

NCZ045>047-081-094-103-104-260700-
CENTRAL COAST

CITY           SKY/WX    TMP DP  RH WIND       PRES   REMARKS
FRISCO         MOCLDY    63  55  75 W3        30.26S

$$

NCZ095-097-098-100-101-260700-
SOUTHERN COAST

CITY           SKY/WX    TMP DP  RH WIND       PRES   REMARKS
BEAUFORT       PTCLDY    56  54  93 CALM      30.25F
CEDAR ISLAND   NOT AVBL
JACKSONVILLE   CLOUDY    54  54 100 CALM      30.23F
PINEY ISLAND   CLOUDY   N/A N/A N/A S5        30.25F
WILMINGTON     MOCLDY    61  57  87 S7        30.23F


$$

NCZ011>013-027>030-043-044-078>080-089-090>093-098-260700-
COASTAL PLAIN

CITY           SKY/WX    TMP DP  RH WIND       PRES   REMARKS
AHOSKIE        NOT AVBL
CLINTON        CLOUDY    58  55  90 CALM      30.22F
ELIZABETHTOWN  MOCLDY    56  55  94 CALM      30.22F
GOLDSBORO      PTCLDY    60  57  89 S3        30.21F
GREENVILLE     CLOUDY    59  55  88 S7        30.23F
HAVELOCK       NOT AVBL
KENANSVILLE    PTCLDY    52  50  93 CALM      30.23F
KINSTON        CLOUDY    58  54  85 S5        30.23F
NEW BERN       CLOUDY    54  53  97 CALM      30.25F
RICHLANDS      MOCLDY    52  51  97 CALM      30.24F
ROCKY MOUNT    PTCLDY    54  52  93 CALM      30.22F
WASHINGTON     CLOUDY    57  53  87 CALM      30.24S
WHITEVILLE     MOCLDY    60  55  83 S5        30.21F

$$

AMZ130-135-150-152-154-156-158-170-250-252-270-ANZ085-086-088-633-658-670-260700-
MARINE OBSERVATIONS

STATION/POSITION TIME  TEMP    WIND        PRES    WAVE   SWELL
                       AIR SEA DIR/SP/G            HT/PER HT/PER
                 (UTC) (F)     (DEG/KT/KT) (MB)    (FT/S) (FT/S)
CHESAPEAKE LIGHT NOT AVBL
64 E VA BEACH    0550   53 49  220/ 10/ 10 1023.9    3/ 5   2/ 5
DUCK             0600   60 48  210/  8/  9 1023.7
2 E DUCK         0600      49                N/A     1/ 8
OREGON INLET     0600   57 59  200/  5/  6 1024.4
13E OREGON INLT  0548      50                N/A     3/ 5   2/ 5
HATTERAS CG      0600   61 58  250/  5/  5 1024.2
DIAMOND BUOY     0550   69 76  180/ 16/ 19 1024.7    3/ 5   2/ 9
CAPE LOOKOUT     0600   65     170/ 11/ 15 1024.0
BEAUFORT LAB     0600   58 55     CALM     1023.3
30 SE NEW RVR IN 0608   67     180/  8/ 10 1024.2
30 SE NEW RVR IN 0543      65                N/A     3/ 7
27 SE WRIGHTSVLE 0608   66 63  170/  8/ 10 1023.1
5 SE WRIGHTSVLE  0608   61 58  210/  4/  6 1023.6
225 S CAPE HAT   0550   67 72  100/ 12/ 16 1024.8    4/ 8   3/ 8
41 SE CHARLESTON 0550   70 70  160/ 12/ 14 1022.8    5/ 8   3/ 8

$$




USA.gov is the U.S. government's official web portal to all federal, state and local government web resources and services.